Wind_Speed
53 53 53 53 53 54 54 54 54 53 52 52 52 52 52 52 51 51 51 50 50 50 50 50 50 50 50 50 50 49 49 50 49 49 49 49 49 49
54 55 55 55 55 55 56 56 56 55 55 54 54 54 54 53 53 53 52 52 51 52 52 52 52 52 52 52 52 52 52 51 51 51 51 51 51 51
56 56 56 56 56 56 56 56 56 56 56 55 55 54 54 54 54 54 53 54 54 54 54 53 54 54 54 54 54 54 54 53 53 53 53 53 53 54
56 56 56 56 56 56 57 57 57 57 57 57 56 56 55 56 55 55 55 55 55 55 55 55 56 56 56 55 55 55 55 55 55 56 56 56 56 56
56 56 56 56 56 56 56 56 56 56 56 57 57 57 56 57 57 57 56 57 56 57 57 57 57 57 57 57 57 57 57 58 58 58 58 58 58 59
56 56 56 56 56 55 55 56 56 56 56 56 57 57 57 57 57 57 58 58 58 58 59 59 58 59 59 59 59 60 60 60 60 60 60 60 60 60
57 57 56 56 57 56 56 55 55 55 55 56 56 57 57 57 57 57 58 58 58 59 59 59 59 59 60 60 60 61 61 61 61 61 62 62 62 62
55 55 55 56 56 56 56 56 56 56 56 56 56 56 57 57 57 57 58 58 59 59 59 59 59 60 61 61 61 61 62 62 62 63 63 63 62 62
55 54 55 55 55 56 56 56 56 57 56 56 57 56 57 57 57 58 58 58 58 59 59 59 60 61 62 62 63 63 62 63 63 64 64 64 63 63
53 53 53 54 54 55 55 55 56 56 56 57 57 57 57 57 58 58 59 59 60 60 60 60 61 61 61 61 62 62 62 63 63 63 63 63 63 63
52 52 52 53 53 54 54 55 55 55 56 56 57 57 57 57 59 59 60 60 60 60 61 61 61 61 61 60 60 61 61 61 61 61 61 61 62 62
51 51 52 52 52 52 52 53 53 54 55 55 56 57 58 58 59 59 59 59 59 59 59 59 59 60 59 58 59 60 61 61 61 61 60 60 61 61
49 50 50 49 50 50 50 50 50 50 51 52 53 54 56 56 56 57 57 58 57 57 57 57 57 58 58 58 58 59 59 59 59 59 59 59 59 59
47 47 48 47 47 48 48 48 48 49 50 50 50 51 52 52 53 53 53 53 54 54 54 54 55 56 56 56 56 56 57 57 57 57 58 58 57 57
46 46 46 47 47 47 47 47 47 48 48 48 48 49 49 50 50 51 51 50 50 51 52 52 53 53 54 54 54 54 55 55 55 56 55 56 56 55
45 45 46 46 46 46 46 47 47 47 47 47 47 47 48 48 49 50 50 50 50 50 51 52 52 52 52 52 53 53 53 53 54 54 54 53 54 54
44 45 44 45 45 45 46 46 46 47 46 46 46 46 47 48 49 49 50 51 51 50 51 52 52 52 52 52 52 52 53 52 53 53 53 52 52 53
44 44 44 44 44 44 45 45 45 45 45 45 46 46 46 47 48 49 50 51 51 50 50 51 51 51 51 51 53 53 53 52 53 53 52 51 51 51
44 43 44 44 43 43 43 43 43 43 44 44 44 45 45 46 47 47 48 49 49 49 49 50 51 51 51 50 51 53 52 51 52 51 51 51 50 50
42 43 43 43 42 42 41 41 41 41 42 42 43 43 44 44 45 46 47 47 48 48 48 48 49 50 50 49 49 50 51 50 50 50 50 51 51 51
41 41 41 40 40 40 40 40 40 40 40 41 41 42 42 43 44 45 45 46 46 46 47 47 48 49 49 49 48 47 48 49 50 50 50 49 49 49
37 37 38 39 39 39 39 39 39 39 40 40 40 41 41 42 43 43 44 45 45 45 45 45 46 46 46 46 46 45 46 47 48 49 49 48 48 47
33 34 35 36 37 38 38 38 38 38 39 39 39 39 39 40 40 41 42 42 43 43 43 43 43 42 42 43 43 43 44 45 46 47 47 47 46 46
Wind_Direction
262 262 262 262 263 263 263 263 262 262 262 262 262 262 262 262 262 262 262 262 262 262 263 263 264 265 265 266 266 267 268 268 268 268 268 268 268 269
263 263 263 263 263 263 264 264 263 263 263 262 262 262 261 261 262 262 262 263 263 263 263 263 264 265 266 266 266 267 268 268 268 268 269 269 268 268
264 264 265 264 264 264 264 264 264 264 263 262 262 262 261 261 261 261 262 262 263 263 263 263 264 264 265 266 267 267 267 267 268 268 269 269 269 269
264 264 264 264 264 264 264 264 265 264 264 263 262 262 261 260 260 260 262 262 263 263 264 264 264 265 266 267 267 268 268 267 268 268 269 269 270 270
264 264 264 264 264 264 264 265 265 264 264 263 262 262 261 260 260 261 261 262 263 264 264 265 265 265 266 267 267 268 268 268 268 268 269 269 270 270
264 264 264 265 265 264 264 265 265 264 264 263 262 262 261 260 260 261 261 262 263 264 264 265 265 266 266 267 267 267 267 268 268 269 269 269 270 270
266 265 265 265 265 265 265 265 265 264 264 263 262 262 261 260 260 261 261 261 263 264 264 265 266 266 266 266 267 267 268 268 269 269 269 270 270 270
267 265 265 265 265 265 265 265 264 264 264 264 263 262 260 260 260 261 262 262 263 263 264 264 265 266 266 267 267 267 268 268 269 269 269 270 270 270
266 266 266 266 266 266 266 266 265 265 264 265 264 263 261 261 261 261 262 263 263 263 264 265 265 266 266 267 268 268 268 268 268 269 269 269 269 269
265 266 266 266 266 266 266 266 266 265 265 265 265 264 263 263 262 262 263 263 264 265 265 266 266 266 266 267 267 268 268 268 269 270 270 269 269 269
265 265 266 267 267 267 266 265 265 265 265 265 265 263 263 263 263 263 263 264 264 265 266 266 266 266 266 267 267 268 269 269 270 270 270 270 269 269
265 265 266 266 266 266 266 266 265 265 265 264 264 264 263 263 264 264 264 264 264 265 266 267 266 266 266 266 267 267 268 269 270 270 270 270 270 270
265 265 266 266 266 266 266 266 265 265 264 265 264 264 264 264 264 264 265 265 265 266 266 266 267 267 267 267 266 267 268 269 270 270 270 270 270 270
266 266 266 266 266 266 266 265 265 265 266 266 266 266 265 264 264 265 265 266 266 266 267 267 268 269 268 268 267 267 268 269 269 270 270 270 270 270
265 265 265 265 266 266 266 267 266 267 267 267 267 267 266 265 264 265 265 266 267 268 268 268 269 269 269 269 269 268 268 269 270 270 270 269 270 270
264 265 265 265 266 267 267 267 268 268 268 268 267 267 266 266 265 265 265 265 266 268 269 270 270 270 270 270 270 269 269 269 269 269 269 269 269 270
266 266 266 266 266 267 268 268 268 268 268 268 268 267 267 266 266 266 266 265 266 267 268 270 270 270 270 270 270 270 270 269 268 268 268 269 269 271
267 267 267 267 267 267 268 269 269 268 268 268 268 268 269 268 267 267 267 266 267 268 269 269 270 270 271 271 271 271 270 269 268 268 268 269 269 271
267 267 267 267 267 267 268 269 269 268 268 268 269 269 270 269 269 268 268 267 268 268 269 270 271 271 271 271 271 271 270 269 269 269 269 269 270 271
267 267 267 267 267 267 267 267 268 268 268 269 270 270 271 271 270 269 268 268 268 268 269 271 272 272 272 272 271 271 270 269 269 269 269 270 271 271
268 267 266 266 266 266 266 267 268 269 269 270 270 271 272 272 271 270 269 268 269 269 270 271 272 273 273 273 272 271 270 270 270 270 270 271 271 271
269 268 267 266 266 267 267 268 269 270 270 271 271 272 272 272 272 272 270 269 269 270 271 271 272 273 274 273 273 272 271 270 270 271 271 272 272 271
270 269 268 267 267 267 268 270 270 270 271 271 272 273 273 273 273 273 272 271 270 270 271 271 272 273 274 275 274 274 273 271 270 270 271 272 272 273
Height
5647 5648 5650 5652 5654 5656 5657 5659 5662 5664 5667 5669 5670 5671 5673 5675 5677 5678 5680 5682 5684 5686 5687 5689 5691 5692 5694 5695 5696 5697 5698 5699 5700 5701 5702 5702 5703 5704
5632 5634 5636 5638 5640 5641 5643 5645 5646 5649 5652 5655 5656 5657 5658 5660 5662 5664 5666 5668 5670 5672 5674 5675 5677 5678 5680 5681 5682 5683 5684 5685 5686 5687 5688 5689 5689 5690
5618 5619 5621 5623 5625 5626 5628 5630 5632 5633 5637 5640 5641 5642 5644 5645 5648 5650 5652 5654 5656 5657 5659 5660 5662 5663 5665 5666 5668 5669 5670 5671 5671 5672 5673 5674 5674 5675
5603 5604 5606 5607 5609 5611 5613 5614 5616 5618 5620 5624 5626 5627 5629 5630 5633 5635 5637 5639 5641 5642 5644 5645 5647 5648 5650 5651 5652 5653 5654 5655 5656 5657 5658 5659 5659 5659
5588 5589 5591 5592 5594 5596 5597 5599 5601 5602 5604 5607 5610 5612 5613 5615 5617 5619 5621 5624 5625 5627 5628 5630 5631 5632 5634 5635 5636 5637 5638 5640 5641 5641 5641 5642 5642 5643
5573 5574 5575 5577 5579 5581 5582 5584 5585 5587 5589 5590 5593 5595 5597 5599 5601 5603 5606 5608 5609 5611 5612 5613 5615 5616 5617 5618 5619 5620 5621 5622 5623 5624 5624 5625 5625 5625
5558 5559 5560 5562 5563 5565 5567 5568 5570 5571 5573 5574 5577 5579 5581 5582 5585 5587 5589 5591 5593 5594 5596 5597 5599 5600 5600 5601 5601 5602 5603 5604 5605 5605 5606 5607 5607 5607
5543 5544 5545 5546 5548 5549 5551 5552 5554 5555 5557 5559 5561 5563 5565 5566 5568 5570 5572 5575 5577 5579 5579 5581 5581 5582 5583 5583 5584 5584 5585 5586 5586 5587 5587 5588 5588 5588
5528 5529 5530 5531 5532 5534 5535 5536 5537 5539 5541 5543 5544 5546 5548 5550 5551 5553 5555 5556 5559 5560 5561 5564 5564 5565 5565 5565 5566 5566 5567 5567 5567 5568 5568 5569 5569 5570
5513 5514 5515 5516 5517 5518 5519 5520 5522 5523 5525 5526 5528 5530 5531 5532 5534 5535 5537 5539 5541 5542 5543 5546 5546 5547 5547 5547 5547 5547 5548 5548 5549 5549 5549 5549 5549 5550
5499 5500 5501 5501 5502 5502 5503 5505 5506 5507 5508 5509 5511 5513 5514 5515 5516 5518 5519 5521 5524 5525 5525 5526 5528 5529 5530 5530 5530 5530 5530 5530 5530 5530 5530 5530 5530 5531
5485 5485 5486 5486 5487 5487 5487 5489 5490 5492 5492 5493 5494 5496 5497 5498 5499 5500 5501 5503 5505 5508 5508 5508 5509 5509 5513 5515 5513 5513 5512 5512 5512 5512 5512 5512 5512 5512
5471 5472 5472 5472 5472 5472 5473 5474 5475 5475 5476 5477 5478 5479 5480 5481 5482 5483 5484 5486 5487 5489 5490 5490 5491 5491 5493 5496 5497 5496 5495 5495 5495 5495 5494 5494 5494 5494
5457 5457 5458 5458 5458 5458 5459 5459 5460 5460 5461 5462 5462 5463 5464 5466 5466 5467 5468 5469 5470 5471 5472 5472 5474 5475 5476 5477 5479 5479 5478 5478 5478 5477 5477 5477 5477 5476
5443 5444 5444 5444 5445 5445 5445 5445 5446 5446 5447 5448 5448 5449 5449 5450 5450 5451 5452 5453 5454 5455 5455 5456 5457 5457 5458 5459 5461 5461 5461 5462 5461 5460 5460 5460 5460 5460
5430 5430 5430 5431 5431 5431 5432 5432 5432 5432 5433 5434 5434 5434 5435 5435 5435 5436 5437 5438 5439 5440 5440 5440 5440 5441 5442 5442 5443 5444 5443 5444 5444 5443 5443 5443 5443 5443
5416 5416 5417 5417 5418 5418 5418 5418 5418 5418 5419 5419 5420 5420 5420 5421 5421 5421 5422 5422 5424 5425 5425 5425 5424 5424 5425 5425 5426 5426 5426 5426 5426 5426 5427 5427 5427 5427
5402 5403 5403 5403 5404 5404 5404 5404 5404 5404 5404 5405 5405 5406 5406 5406 5406 5406 5406 5407 5409 5409 5410 5410 5409 5409 5410 5410 5409 5409 5410 5410 5410 5410 5410 5411 5411 5411
5389 5389 5389 5390 5390 5390 5390 5391 5391 5391 5391 5391 5391 5391 5391 5391 5392 5392 5392 5392 5393 5394 5394 5394 5393 5393 5394 5395 5395 5393 5393 5393 5393 5394 5394 5395 5395 5396
5375 5375 5376 5376 5376 5377 5377 5377 5377 5377 5377 5377 5377 5377 5377 5377 5377 5377 5377 5377 5378 5379 5378 5378 5378 5377 5377 5378 5379 5379 5377 5377 5377 5378 5379 5379 5379 5380
5361 5362 5362 5363 5363 5363 5364 5364 5364 5364 5364 5364 5364 5364 5364 5363 5363 5363 5363 5363 5363 5363 5363 5363 5363 5362 5361 5362 5363 5363 5362 5361 5361 5362 5363 5363 5364 5364
5348 5349 5349 5350 5350 5351 5351 5351 5351 5351 5351 5351 5351 5351 5350 5350 5349 5349 5349 5349 5348 5348 5349 5349 5348 5347 5347 5346 5347 5347 5347 5347 5346 5346 5346 5346 5346 5348
5337 5337 5337 5337 5338 5338 5338 5338 5338 5338 5338 5338 5338 5338 5337 5337 5336 5335 5335 5335 5335 5335 5335 5334 5334 5333 5332 5332 5332 5332 5332 5332 5332 5332 5332 5331 5331 5332